RH
6 5 5 5 5 5 5 6 6 7 8 8 8 6 7 7 7 7 9 21 35 54 95 100 100 100 95 71 52 68 90 100 96 69 52 46 38 39 37 34 29 31 33 33 36
5 5 5 5 4 4 5 5 6 5 6 6 7 7 6 6 7 7 8 10 21 43 53 99 100 100 100 85 68 58 75 97 100 100 94 61 43 42 43 41 38 35 34 34 40
4 4 4 4 4 4 4 4 4 4 4 4 5 6 6 6 7 8 7 7 11 26 46 76 94 100 100 98 88 73 68 97 100 100 100 93 55 47 47 46 52 56 63 70 67
4 4 4 4 4 3 3 3 3 3 3 3 4 4 7 6 6 7 7 6 8 18 24 56 88 95 100 100 100 98 87 81 100 100 100 100 92 66 62 55 69 64 72 73 68
4 3 4 4 3 3 3 2 2 2 2 2 2 3 4 6 6 8 7 7 7 9 22 56 76 100 100 100 100 100 99 93 99 100 100 100 97 92 80 78 90 99 99 94 89
3 3 3 3 2 2 2 1 2 2 2 2 2 2 2 5 7 8 6 6 6 8 12 31 74 98 100 100 100 100 100 100 100 99 100 100 98 90 91 85 100 96 97 98 93
3 3 3 2 2 2 1 1 2 2 2 2 2 2 2 5 6 6 6 6 7 7 8 15 62 90 100 99 91 100 100 100 100 100 100 100 100 100 92 86 98 100 100 100 98
3 3 3 2 2 2 1 1 1 1 2 2 2 2 3 4 6 5 6 7 8 8 8 10 24 80 100 100 86 89 100 100 100 100 100 100 100 100 100 95 89 100 100 100 100
3 3 3 2 2 1 1 1 1 1 1 1 2 2 3 4 5 5 6 7 9 8 9 9 14 43 98 100 93 81 100 100 100 100 100 100 100 100 100 100 100 100 100 100 100
3 3 3 2 2 1 1 1 1 1 1 1 1 2 3 4 4 6 6 8 9 9 9 10 10 26 86 98 100 98 100 100 100 100 100 100 100 100 100 100 100 100 100 100 100
3 3 3 2 2 2 2 1 1 1 1 1 1 2 3 3 4 6 9 8 10 10 10 10 10 17 77 100 100 100 98 100 100 100 100 100 100 100 100 100 100 100 99 100 100
3 3 3 2 2 2 2 1 1 2 1 1 2 2 3 4 5 8 10 9 12 12 11 12 11 11 31 98 100 100 100 100 100 100 100 100 100 100 100 100 100 100 100 100 100
3 3 3 2 2 2 2 1 2 2 2 2 2 3 4 5 5 7 8 10 13 14 12 12 12 12 13 59 100 100 100 100 100 100 100 100 100 100 100 100 100 100 100 100 100
4 3 3 3 3 2 2 2 2 2 2 2 3 4 5 6 6 8 14 19 20 17 14 13 13 14 13 15 80 100 100 100 100 99 100 100 100 100 100 100 100 100 100 100 100
5 4 3 3 3 3 2 2 2 2 3 3 3 5 5 7 9 12 23 20 18 18 17 15 16 15 15 15 17 87 100 100 100 100 100 100 100 100 100 100 100 100 100 100 100
5 4 4 3 3 3 4 3 3 3 3 3 4 5 6 9 17 20 24 22 17 19 19 17 16 15 17 16 18 22 94 100 100 100 100 100 100 98 100 100 100 100 100 100 100
5 5 4 4 4 4 4 5 4 3 5 5 5 6 7 11 15 20 24 22 18 18 18 18 16 15 17 17 18 20 38 96 100 100 100 100 100 97 93 90 96 98 98 94 93
6 6 5 5 4 4 4 5 8 6 5 7 8 9 11 18 20 26 22 20 19 22 21 20 17 17 13 16 14 19 28 41 97 100 100 100 100 87 80 77 79 75 71 69 68
7 7 6 6 6 6 6 7 12 14 9 7 9 10 16 25 31 26 22 20 23 24 23 20 18 17 13 16 18 21 32 47 76 100 100 100 100 100 100 90 78 72 71 77 74
7 8 7 6 6 6 8 10 15 20 21 17 14 12 19 26 24 26 27 23 24 23 29 24 22 19 18 18 23 23 28 43 72 81 100 100 100 100 100 100 100 98 100 99 97
8 8 7 6 7 6 8 8 17 18 23 24 27 21 23 20 22 25 26 26 26 25 26 28 31 25 25 23 27 33 31 35 65 100 100 100 100 100 100 100 100 100 100 92 86
9 8 8 7 7 8 8 9 14 23 26 25 24 28 27 25 27 27 28 29 29 30 30 30 30 35 32 30 28 26 39 45 48 100 89 100 100 100 100 100 100 100 100 100 90
8 9 8 8 8 8 9 9 12 22 29 31 25 26 28 27 28 27 28 30 30 34 34 34 32 39 41 44 37 29 34 44 70 71 85 99 100 98 99 98 100 100 100 100 100
8 9 9 8 8 8 9 11 11 20 34 37 35 33 29 31 37 35 35 33 35 38 40 39 34 41 49 53 58 66 72 66 67 80 77 83 100 99 99 98 96 94 96 95 90
8 8 9 9 7 8 10 11 12 15 27 41 48 48 45 44 42 40 40 44 40 42 48 48 46 52 50 61 61 68 89 94 82 91 94 100 100 98 93 94 83 82 87 89 85
7 7 8 9 8 8 8 11 13 14 26 44 51 61 59 55 58 59 55 43 52 52 58 66 69 65 67 62 70 72 85 94 96 87 93 95 100 100 100 100 100 98 93 96 98
6 6 7 8 8 8 8 9 12 14 17 29 52 65 73 66 66 66 65 70 67 50 52 70 74 74 71 65 68 78 88 94 90 90 95 93 93 93 97 96 96 96 99 98 88
Wind_Speed
88 84 77 70 64 57 49 43 41 42 49 57 65 66 67 70 80 91 99 113 124 123 121 117 112 109 106 100 98 92 92 87 87 89 91 89 86 82 79 76 73 71 70 68 66
89 85 79 72 67 61 55 49 49 48 53 59 66 72 71 73 77 89 99 114 121 126 124 122 116 113 110 105 101 98 89 86 86 88 91 93 89 85 82 79 77 76 75 73 72
90 85 79 75 69 63 58 53 53 56 58 62 66 72 76 77 80 85 102 107 117 126 126 125 123 117 113 109 103 99 92 89 92 91 90 91 91 88 85 82 79 77 76 77 77
89 84 80 79 74 68 63 58 54 53 55 60 66 66 78 80 80 89 96 104 113 121 125 128 127 120 115 111 107 102 98 94 95 95 93 90 87 89 88 85 80 79 78 79 78
88 84 82 79 76 71 64 56 50 47 49 53 58 62 68 81 82 91 92 100 107 116 126 129 128 122 118 115 111 107 101 100 98 97 94 90 88 86 88 86 82 78 78 79 78
89 85 82 79 74 69 60 50 41 41 41 44 48 51 55 71 84 89 93 94 102 110 121 129 130 126 123 120 116 111 106 105 102 101 96 91 87 84 85 87 81 80 79 78 77
93 87 85 80 75 66 55 43 37 33 32 35 38 39 45 65 84 89 89 90 97 105 116 124 132 131 124 123 121 116 111 111 106 103 98 94 89 83 86 81 77 74 71 69 71
94 90 88 83 77 65 54 43 35 30 28 27 29 31 46 61 79 85 87 88 93 101 109 120 130 133 129 125 124 120 117 113 109 105 100 97 90 86 87 81 80 77 74 72 73
96 93 91 86 78 64 52 44 36 27 20 22 28 35 47 60 75 81 85 87 92 97 103 115 123 129 132 127 124 121 117 113 111 106 102 97 94 90 89 86 84 81 79 77 75
97 94 91 85 75 62 53 45 33 24 18 22 29 36 48 60 69 77 77 84 87 93 98 108 118 126 131 129 120 117 115 114 113 110 105 101 97 96 93 90 88 86 83 80 78
96 93 90 85 76 65 55 43 32 21 13 17 26 35 45 54 62 71 77 81 85 89 94 101 111 118 124 127 123 117 118 118 117 113 110 105 100 98 97 95 92 88 87 85 81
95 92 89 84 77 65 52 38 30 19 9 12 25 35 39 48 60 71 77 76 79 85 91 96 101 111 119 126 125 120 117 118 117 114 110 105 102 102 102 99 96 93 90 89 87
96 92 89 83 77 63 52 40 29 19 8 7 23 32 37 47 56 63 65 66 73 81 86 86 92 100 113 119 124 123 121 117 116 114 111 107 105 103 102 100 97 96 94 92 89
97 92 88 83 76 62 51 39 30 19 11 9 20 31 37 41 47 55 57 63 69 77 79 81 85 91 102 113 119 121 121 120 116 114 112 109 105 104 102 101 98 96 94 93 92
94 92 88 82 77 64 51 43 32 24 19 15 18 22 27 35 44 50 59 64 65 69 74 76 81 85 95 107 112 118 120 120 119 114 111 108 107 103 102 100 97 97 97 93 91
91 90 87 80 75 66 53 45 37 27 23 17 14 20 29 35 43 51 57 62 63 67 69 70 75 80 86 95 103 109 114 117 116 116 111 108 107 106 104 102 99 96 95 94 94
90 88 87 81 75 68 56 48 44 30 26 20 13 13 18 30 40 48 53 56 55 52 63 67 72 76 79 87 96 101 104 108 113 110 111 107 106 105 103 101 100 99 98 96 94
86 84 83 80 76 70 58 48 49 44 28 21 14 15 23 31 39 45 46 47 45 52 58 61 63 67 69 78 82 90 93 96 101 103 101 104 102 103 102 101 97 95 94 93 91
83 80 79 77 73 68 60 53 49 46 35 24 15 13 22 30 33 34 34 38 42 48 53 53 56 60 61 66 72 78 86 91 92 96 91 94 94 89 88 93 94 93 90 86 84
80 76 75 71 68 62 55 47 45 38 32 23 22 9 18 23 25 28 31 33 37 40 43 46 48 50 52 55 64 72 81 86 88 91 95 94 92 91 92 91 90 89 87 86 84
78 73 70 68 63 59 53 42 39 34 27 20 15 11 5 8 18 22 27 30 34 36 38 41 42 42 45 49 50 59 69 76 85 84 90 90 89 88 85 84 83 83 84 85 85
73 71 68 63 59 56 51 43 33 34 28 19 12 9 8 10 16 20 25 29 32 33 35 37 39 41 43 43 44 51 60 65 75 85 86 86 89 91 87 79 82 76 76 78 83
68 66 65 60 56 52 48 43 33 28 28 22 13 6 5 8 14 18 22 26 29 31 34 36 38 39 41 42 44 48 53 57 61 64 73 81 83 82 84 90 92 91 86 83 83
66 63 59 58 53 48 44 40 34 25 22 23 18 9 4 8 11 16 19 23 26 29 31 34 36 39 41 43 44 44 46 52 60 64 67 67 69 72 74 75 77 80 84 90 94
65 62 56 55 52 45 41 37 34 25 18 17 17 11 4 4 7 10 14 18 23 26 30 32 32 34 37 41 43 45 46 49 51 51 53 60 64 66 64 66 67 66 67 70 72
62 60 54 51 49 46 39 34 30 25 17 12 11 10 6 2 3 5 6 11 18 21 25 28 30 30 32 37 40 42 46 45 48 52 53 54 56 61 62 61 61 62 63 63 62
59 57 52 50 47 44 39 34 28 24 18 11 7 6 4 3 2 3 5 7 10 15 21 27 29 29 29 31 36 42 46 48 49 51 52 51 55 56 58 58 57 57 55 55 56
Wind_Direction
339 337 335 332 327 320 312 297 278 259 247 239 241 237 231 224 219 215 214 214 214 213 211 213 216 218 216 216 216 218 217 216 218 223 225 225 224 225 225 226 229 232 236 238 239
339 338 335 332 327 320 313 300 286 269 255 243 235 237 231 227 222 217 213 214 215 214 213 211 214 216 217 215 216 217 216 217 220 223 225 226 224 225 227 229 231 234 238 240 242
340 338 336 332 327 322 313 301 287 275 262 252 241 232 233 227 223 218 216 214 214 214 214 211 212 214 217 216 215 217 216 215 219 223 226 226 225 226 227 230 233 236 239 242 243
341 340 336 334 329 324 317 306 292 276 264 255 248 236 229 228 222 220 218 215 214 213 215 212 212 212 216 218 216 217 217 216 219 223 226 226 226 227 229 231 234 237 240 242 245
342 342 340 335 330 323 315 305 293 280 267 255 248 242 227 227 222 220 219 217 214 212 214 213 212 212 215 217 218 216 217 219 219 222 225 227 227 228 230 231 235 237 240 243 245
344 345 341 336 331 325 318 309 297 281 268 258 250 240 228 219 222 220 218 215 215 213 213 214 213 211 214 215 217 218 216 221 221 222 224 226 227 228 231 232 235 238 241 244 247
347 347 344 340 336 332 326 318 303 288 270 258 245 234 221 214 217 218 217 214 214 213 213 213 213 212 213 216 215 217 217 219 221 224 224 225 228 228 231 230 233 237 239 242 246
348 349 346 345 341 338 334 327 313 292 275 257 239 221 210 208 211 217 215 213 212 213 212 213 213 213 211 216 216 215 217 219 222 223 225 227 228 230 234 233 232 235 238 241 245
350 351 349 348 344 342 338 333 323 308 270 241 227 214 205 205 208 212 212 210 210 211 212 213 214 213 213 214 218 216 217 219 222 224 226 227 230 230 233 234 234 236 239 242 245
351 353 352 349 348 347 345 341 332 313 275 242 222 210 202 202 206 208 208 209 209 210 211 213 214 214 213 213 218 219 219 220 223 224 226 228 229 231 233 236 236 237 239 242 245
353 354 354 352 353 353 351 346 343 324 284 240 218 203 199 201 202 204 205 206 207 209 210 213 214 214 213 214 215 220 219 220 221 224 226 228 230 232 234 236 238 240 241 241 244
354 356 356 355 357 357 356 351 354 350 317 231 205 197 197 196 197 199 202 203 205 208 211 213 214 214 214 213 215 217 222 222 223 224 226 228 230 234 235 237 239 241 243 244 247
354 357 359 359 1 359 0 4 8 9 13 195 190 187 187 193 198 198 200 201 205 208 212 212 215 215 215 215 216 217 220 224 224 226 227 228 230 234 236 238 240 242 244 246 249
353 358 1 2 3 2 8 15 20 34 57 127 169 176 180 188 194 194 192 199 204 207 212 212 215 216 215 217 217 218 221 224 226 226 228 230 231 234 237 238 240 243 245 247 250
353 356 3 3 6 6 13 21 26 36 67 106 143 166 175 181 186 186 191 201 203 206 211 212 214 215 217 216 217 218 220 224 226 229 229 231 232 234 237 239 242 245 247 249 252
354 356 1 4 8 10 16 25 28 46 65 81 133 164 171 173 179 189 193 202 204 203 209 212 215 216 216 217 218 219 220 223 226 229 232 234 235 235 237 239 241 244 247 250 252
354 356 359 4 8 14 18 30 34 39 54 63 100 143 158 171 183 192 193 203 208 207 210 213 214 217 214 216 218 219 220 223 226 230 232 235 237 238 240 241 243 245 248 252 254
354 355 359 2 6 12 17 29 39 38 50 62 93 124 150 170 183 192 197 205 206 206 213 215 217 220 218 219 220 220 220 224 226 228 233 236 239 241 243 244 246 249 252 254 256
352 355 359 0 5 10 15 23 33 37 34 48 82 123 151 170 181 196 200 203 205 208 215 220 220 223 221 219 220 220 220 222 225 226 229 234 236 239 243 248 250 252 254 255 259
350 353 356 360 2 8 14 22 28 32 34 35 27 107 152 174 183 190 205 206 210 213 216 220 222 225 226 222 217 217 219 222 225 228 230 230 233 237 241 244 247 250 251 254 256
348 351 353 356 359 3 11 22 28 31 39 39 40 39 113 178 180 190 201 210 212 215 217 219 223 224 223 223 218 217 219 220 224 226 229 231 233 236 238 241 244 246 249 252 257
347 346 350 354 355 358 6 15 24 31 32 38 42 83 121 156 173 185 197 205 210 215 217 218 222 225 223 224 222 216 216 221 221 224 229 231 234 236 235 237 239 241 243 245 251
345 344 345 350 351 355 360 7 18 27 31 28 32 58 122 160 175 189 193 202 208 210 215 217 218 219 223 224 222 220 218 220 220 223 227 229 234 238 240 242 244 245 247 248 251
342 340 342 344 348 349 354 359 9 18 26 30 31 42 106 158 174 188 198 203 207 210 213 217 220 220 220 222 222 220 219 217 219 221 225 228 230 234 238 243 247 250 252 254 257
339 337 339 339 343 344 348 353 358 7 11 31 21 28 52 123 141 167 189 200 207 209 210 214 217 219 220 220 220 220 223 227 226 227 227 229 231 236 239 242 246 250 254 257 260
336 334 334 334 338 337 341 346 349 354 356 350 13 16 29 75 137 154 183 200 200 208 210 210 214 214 216 219 220 221 222 221 224 227 227 229 230 235 238 243 246 248 252 255 256
334 331 330 328 333 331 332 338 340 341 341 334 318 343 305 311 221 204 196 191 213 218 211 211 211 212 213 217 218 220 221 223 226 228 230 234 236 237 240 242 246 250 251 255 258